This is the latest recevied weather packets stored in our database for station/object KH6DH-13. If no packets are shown the sender has not sent any weather packets the latest 10 day(s).
| Time | Temp. | Humidity | Pressure | Rain* | Wind** | Luminosity | Snow |
|---|---|---|---|---|---|---|---|
| 1788189335 | 25° C | - | - | 0 mm | 0.89 m/s, 319° | - | - |
| 1788188734 | 25.56° C | - | - | 0 mm | 2.24 m/s, 49° | - | - |
| 1788188133 | 25° C | - | - | 0 mm | 1.34 m/s, 124° | - | - |
| 1788187532 | 25° C | - | - | 0 mm | 1.79 m/s, 13° | - | - |
| 1788186929 | 25° C | - | - | 0 mm | 1.34 m/s, 253° | - | - |
| 1788186328 | 25° C | - | - | 0.25 mm | 3.13 m/s, 103° | - | - |
| 1788185727 | 25° C | - | - | 0.25 mm | 1.79 m/s, 62° | - | - |
| 1788185126 | 25° C | - | - | 0.25 mm | 1.34 m/s, 259° | - | - |
| 1788184525 | 25° C | - | - | 0.25 mm | 2.68 m/s, 90° | - | - |
| 1788183924 | 25° C | - | - | 0.25 mm | 1.79 m/s, 38° | - | - |
| 1788183323 | 25° C | - | - | 0.25 mm | 2.24 m/s, 11° | - | - |
| 1788182722 | 24.44° C | - | - | 0 mm | 2.68 m/s, 56° | - | - |
| 1788182121 | 24.44° C | - | - | 0 mm | 3.13 m/s, 83° | - | - |
| 1788181520 | 24.44° C | - | - | 0 mm | 0.89 m/s, 316° | - | - |
| 1788180926 | 24.44° C | - | - | 0 mm | 1.34 m/s, 322° | - | - |
| 1788180318 | 24.44° C | - | - | 0 mm | 0 m/s | - | - |
| 1788179716 | 23.89° C | - | - | 0 mm | 0.45 m/s, 152° | - | - |
| 1788179115 | 24.44° C | - | - | 0 mm | 0.45 m/s, 228° | - | - |
| 1788178514 | 25° C | - | - | 0 mm | 0.45 m/s, 20° | - | - |
| 1788177913 | 25° C | - | - | 0 mm | 2.68 m/s, 297° | - | - |
| 1788177312 | 25° C | - | - | 0 mm | 3.58 m/s, 65° | - | - |
| 1788176711 | 25° C | - | - | 0 mm | 0.89 m/s, 193° | - | - |
| 1788176108 | 25° C | - | - | 0 mm | 0.89 m/s, 136° | - | - |
| 1788175507 | 25° C | - | - | 0.25 mm | 0.89 m/s, 23° | - | - |
| 1788174900 | 25° C | - | - | 0.25 mm | 0.89 m/s, 56° | - | - |
* Rain latest hour (hover to see other rain measurements)
** Current wind speed in m/s (hover to see current wind gust speed)